Terug naar catalogus

COSMOS 1275 DEB

ActiefPO
NORAD 12752·DEBRIS·🇷🇺 Russia

Gelanceerd Jun 4, 1981 vanaf Plesetsk Cosmodrome

Loading…

Volgende Passages (komende 24 uur)

TLE

VersSource: Space-Track

Epoch: Sep 14, 2026, 15:03 UTC

1 12752U 81053CV  26257.62750760  .00000574  00000-0  62317-3 0  9997
2 12752  83.0212 322.4279 0124156 138.4135  14.7065 13.67940727233016

Volg COSMOS 1275 DEB in realtime met AllMySat

Download on the App Store